TimeEDT,TemperatureF,Dew PointF,Humidity,Sea Level PressureIn,VisibilityMPH,Wind Direction,Wind SpeedMPH,Gust SpeedMPH,PrecipitationIn,Events,Conditions,WindDirDegrees,DateUTC
12:15 AM,62.6,62.6,100,29.98,7.0,Calm,Calm,-,N/A,,Mostly Cloudy,0,2013-05-09 04:15:00
12:35 AM,60.8,60.8,100,29.97,5.0,Calm,Calm,-,N/A,,Scattered Clouds,0,2013-05-09 04:35:00
2:15 AM,60.8,60.8,100,29.97,7.0,SSW,3.5,-,N/A,,Mostly Cloudy,210,2013-05-09 06:15:00
3:35 AM,59.0,59.0,100,29.97,7.0,Calm,Calm,-,N/A,,Scattered Clouds,0,2013-05-09 07:35:00
4:15 AM,57.2,57.2,100,29.97,4.0,WSW,3.5,-,N/A,,Clear,240,2013-05-09 08:15:00
4:35 AM,57.2,57.2,100,29.97,7.0,SW,4.6,-,0.01,,Clear,230,2013-05-09 08:35:00
5:35 AM,55.4,55.4,100,29.98,4.0,WSW,3.5,-,N/A,,Mostly Cloudy,240,2013-05-09 09:35:00
5:55 AM,55.4,55.4,100,29.98,1.0,WSW,3.5,-,N/A,,Overcast,250,2013-05-09 09:55:00
7:55 AM,57.2,57.2,100,30.02,5.0,SW,3.5,-,N/A,,Mostly Cloudy,230,2013-05-09 11:55:00
8:35 AM,59.0,57.2,94,30.03,10.0,West,5.8,-,N/A,,Mostly Cloudy,260,2013-05-09 12:35:00
9:55 AM,64.4,60.8,88,30.04,10.0,WSW,5.8,-,N/A,,Clear,250,2013-05-09 13:55:00
10:15 AM,66.2,59.0,78,30.04,10.0,West,6.9,-,N/A,,Clear,270,2013-05-09 14:15:00
10:55 AM,69.8,59.0,68,30.03,10.0,West,8.1,-,N/A,,Clear,270,2013-05-09 14:55:00
11:35 AM,71.6,60.8,69,30.03,10.0,WSW,8.1,-,N/A,,Clear,250,2013-05-09 15:35:00
11:55 AM,71.6,59.0,64,30.03,10.0,WSW,10.4,-,N/A,,Clear,240,2013-05-09 15:55:00
12:15 PM,73.4,59.0,61,30.03,10.0,WSW,5.8,-,N/A,,Clear,240,2013-05-09 16:15:00
12:35 PM,73.4,60.8,65,30.03,10.0,West,9.2,-,N/A,,Clear,260,2013-05-09 16:35:00
12:55 PM,73.4,57.2,57,30.02,10.0,WSW,9.2,-,N/A,,Clear,240,2013-05-09 16:55:00
1:15 PM,75.2,57.2,53,30.02,10.0,West,6.9,-,N/A,,Clear,260,2013-05-09 17:15:00
1:55 PM,75.2,55.4,50,30.01,10.0,WSW,9.2,-,N/A,,Clear,250,2013-05-09 17:55:00
2:15 PM,77.0,57.2,50,30.01,10.0,WSW,8.1,16.1,N/A,,Clear,250,2013-05-09 18:15:00
2:35 PM,77.0,57.2,50,30.00,10.0,WSW,11.5,18.4,N/A,,Scattered Clouds,240,2013-05-09 18:35:00
2:55 PM,77.0,57.2,50,30.00,10.0,WSW,4.6,9.2,N/A,,Clear,250,2013-05-09 18:55:00
3:15 PM,78.8,57.2,47,30.00,10.0,WSW,8.1,16.1,N/A,,Clear,250,2013-05-09 19:15:00
3:35 PM,78.8,57.2,47,29.99,10.0,West,8.1,16.1,N/A,,Scattered Clouds,270,2013-05-09 19:35:00
4:15 PM,78.8,57.2,47,29.99,10.0,West,10.4,-,N/A,,Mostly Cloudy,280,2013-05-09 20:15:00
4:35 PM,78.8,55.4,44,29.99,10.0,SW,11.5,-,N/A,,Scattered Clouds,230,2013-05-09 20:35:00
4:55 PM,78.8,57.2,47,29.99,10.0,WSW,6.9,-,N/A,,Scattered Clouds,240,2013-05-09 20:55:00
5:15 PM,78.8,57.2,47,29.99,10.0,WSW,11.5,-,N/A,,Scattered Clouds,240,2013-05-09 21:15:00
5:35 PM,78.8,57.2,47,29.99,10.0,West,4.6,-,N/A,,Scattered Clouds,260,2013-05-09 21:35:00
5:55 PM,78.8,57.2,47,29.99,10.0,WSW,8.1,-,N/A,,Scattered Clouds,240,2013-05-09 21:55:00
6:15 PM,78.8,57.2,47,29.99,10.0,WSW,6.9,-,N/A,,Clear,240,2013-05-09 22:15:00
6:35 PM,78.8,57.2,47,29.99,10.0,WSW,6.9,-,N/A,,Scattered Clouds,240,2013-05-09 22:35:00
6:55 PM,77.0,57.2,50,29.99,10.0,WSW,4.6,-,N/A,,Scattered Clouds,240,2013-05-09 22:55:00
7:15 PM,77.0,59.0,54,30.00,10.0,WSW,3.5,-,N/A,,Clear,250,2013-05-09 23:15:00
7:35 PM,75.2,59.0,57,30.00,10.0,WSW,3.5,-,N/A,,Clear,250,2013-05-09 23:35:00
7:55 PM,73.4,60.8,65,30.01,10.0,Calm,Calm,-,N/A,,Clear,0,2013-05-09 23:55:00
8:15 PM,69.8,62.6,78,30.01,10.0,Calm,Calm,-,N/A,,Clear,0,2013-05-10 00:15:00
8:35 PM,68.0,62.6,83,30.02,10.0,Calm,Calm,-,N/A,,Clear,0,2013-05-10 00:35:00
8:55 PM,66.2,62.6,88,30.03,10.0,Calm,Calm,-,N/A,,Clear,0,2013-05-10 00:55:00
9:15 PM,66.2,62.6,88,30.03,10.0,Calm,Calm,-,N/A,,Clear,0,2013-05-10 01:15:00
9:35 PM,64.4,60.8,88,30.04,10.0,Calm,Calm,-,N/A,,Clear,0,2013-05-10 01:35:00
9:55 PM,64.4,60.8,88,30.05,10.0,Calm,Calm,-,N/A,,Clear,0,2013-05-10 01:55:00
10:15 PM,64.4,60.8,88,30.05,10.0,Calm,Calm,-,N/A,,Clear,0,2013-05-10 02:15:00
10:35 PM,62.6,60.8,94,30.06,10.0,Calm,Calm,-,N/A,,Clear,0,2013-05-10 02:35:00
10:55 PM,62.6,60.8,94,30.06,10.0,Calm,Calm,-,N/A,,Clear,0,2013-05-10 02:55:00
11:15 PM,62.6,60.8,94,30.05,10.0,Calm,Calm,-,N/A,,Clear,0,2013-05-10 03:15:00
11:55 PM,60.8,59.0,94,30.06,10.0,Calm,Calm,-,N/A,,Clear,0,2013-05-10 03:55:00